[[{"header":{"parameterUnit":"m.s-1","parameterCategory":1,"la1":30.2991,"la2":30.254,"lo1":-89.0895,"lo2":-89.0444,"dy":0.0017,"dx":0.0017,"nx":28,"ny":28,"refTime":"2025-02-04T03:00:00:Z","depth":0,"parameterNumber":2,"parameterNumberName":"U-component_of_WINDS"},"data":[0,0,0,0,0,0,0,0,0,0,0,0,0,0,0,0,0,0,0,0,0,0,0,0,0,0,0,0,0,0,0,0,0,0,0,0,0,0,0,0,0,0,0,0,0,0,0,0,0,0,0,0,0,0,0,0,0,0,-1.7262,-1.7262,0,-1.7284,-1.7284,-1.7284,-1.725,-1.7249,-1.7248,-1.7247,-1.7269,-1.7271,-1.7272,0,0,0,0,0,0,0,0,0,0,0,0,0,-1.7192,-1.7193,-1.7262,-1.7262,-1.7262,-1.7284,-1.7284,-1.7284,-1.7251,-1.7249,-1.7248,-1.7247,-1.7269,-1.7271,-1.7273,0,0,0,0,0,0,0,0,0,0,0,0,0,-1.7219,-1.7194,-1.7262,-1.7248,-1.7247,-1.7284,-1.7284,-1.7284,-1.7251,-1.7249,-1.7247,-1.7246,-1.7268,-1.727,-1.7273,-1.7323,0,0,-1.728,-1.7282,0,0,0,0,0,0,0,0,-1.7217,-1.7222,-1.725,-1.7249,-1.7248,-1.7263,-1.7267,-1.7297,-1.7251,-1.725,-1.7247,-1.7245,-1.7268,-1.7271,-1.7279,-1.7324,-1.7325,-1.7281,-1.7282,-1.7283,-1.7284,0,0,0,0,0,0,0,-1.7216,-1.722,-1.727,-1.725,-1.7249,-1.7241,-1.7243,-1.7273,-1.7268,-1.725,-1.7247,-1.725,-1.7267,-1.7276,-1.7279,-1.7326,-1.7281,-1.7283,-1.7284,-1.7285,-1.7414,-1.7416,0,0,0,0,0,0,-1.7215,-1.7219,-1.727,-1.7271,-1.7228,-1.7244,-1.7246,-1.726,-1.7268,-1.7268,-1.7252,-1.7249,-1.7273,-1.7276,-1.728,-1.7339,-1.7283,-1.7286,-1.7287,-1.7413,-1.7415,-1.7417,0,0,0,0,0,0,-1.7214,-1.722,-1.7269,-1.7244,-1.725,-1.7247,-1.7263,-1.7261,-1.727,-1.727,-1.7269,-1.7261,-1.7272,-1.7276,-1.7313,-1.7339,-1.7287,-1.7289,-1.741,-1.7413,-1.7416,-1.7458,0,0,0,0,0,0,-1.7212,-1.722,-1.7239,-1.7245,-1.7251,-1.7302,-1.7264,-1.7263,-1.7274,-1.727,-1.7278,-1.7278,-1.7271,-1.7309,-1.7315,-1.7342,-1.7291,-1.7408,-1.7412,-1.7415,-1.7455,-1.7462,-1.7469,0,0,0,0,0,-1.721,-1.725,-1.724,-1.7246,-1.7275,-1.7303,-1.7307,-1.7297,-1.7276,-1.7295,-1.7296,-1.7278,-1.7336,-1.7313,-1.732,-1.7347,-1.7406,-1.7411,-1.7415,-1.7451,-1.7461,-1.7469,0,0,0,0,0,0,-1.7246,-1.725,-1.7239,-1.7282,-1.7293,-1.7297,-1.7321,-1.7308,-1.7324,-1.7319,-1.7307,-1.7309,-1.7349,-1.7352,-1.7327,-1.7397,-1.7368,-1.7373,-1.7393,-1.7402,-1.7409,-1.7407,-1.7293,0,0,0,0,0,-1.7259,-1.7281,-1.7284,-1.7322,-1.7328,-1.7324,-1.7336,-1.7328,-1.7338,-1.7342,-1.7345,-1.7355,-1.7376,-1.7389,-1.7408,-1.7456,-1.7457,-1.7478,-1.7485,-1.7491,-1.7496,-1.7521,-1.7531,-1.7431,-1.7431,-1.7431,0,0,-1.7286,-1.7291,-1.7306,-1.7329,-1.7336,-1.736,-1.7327,-1.7354,-1.7371,-1.7346,-1.738,-1.7383,-1.7394,-1.7437,-1.7455,-1.7441,-1.7524,-1.7497,-1.7502,-1.7503,-1.7527,-1.7536,-1.7545,-1.7434,-1.7434,-1.7433,0,0,-1.7347,-1.7353,-1.7385,-1.7393,-1.7405,-1.7402,-1.741,-1.7417,-1.7418,-1.7453,-1.7435,-1.7456,-1.7491,-1.75,-1.7509,-1.7576,-1.756,-1.7583,-1.7619,-1.7645,-1.7652,-1.7659,-1.7682,-1.7691,-1.7588,-1.7588,-1.7588,0,-1.7378,-1.7413,-1.7404,-1.7431,-1.7442,-1.7421,-1.7454,-1.7462,-1.748,-1.7488,-1.7471,-1.7516,-1.7522,-1.7566,-1.7583,-1.7591,-1.76,-1.758,-1.7652,-1.7659,-1.7665,-1.7687,-1.7696,-1.759,-1.759,-1.759,-1.7589,0,-1.7452,-1.7476,-1.7501,-1.7518,-1.7532,-1.7563,-1.7558,-1.7573,-1.7565,-1.7564,-1.76,-1.7607,-1.7627,-1.7638,-1.7629,-1.7681,-1.7671,-1.7654,-1.7624,-1.7677,-1.7698,-1.7706,-1.7594,-1.7593,-1.7592,-1.7592,0,0,-1.7533,-1.7546,-1.7556,-1.7563,-1.7575,-1.7594,-1.7624,-1.7644,-1.7657,-1.7671,-1.7695,-1.7727,-1.7711,-1.7721,-1.7714,-1.7737,-1.7788,-1.7716,-1.7716,-1.7728,-1.7845,-1.7858,-1.7867,-1.7779,-1.7781,-1.7782,-1.7844,0,-1.7593,-1.7644,-1.7637,-1.7687,-1.7709,-1.7691,-1.7717,-1.7727,-1.7728,-1.7748,-1.7749,-1.7771,-1.7749,-1.7755,-1.7776,-1.7778,-1.7812,-1.7773,-1.7801,-1.7802,-1.7797,-1.7878,-1.7891,-1.7949,-1.7852,-1.7854,-1.7855,0,-1.767,-1.7686,-1.7737,-1.7746,-1.7756,-1.7779,-1.7797,-1.7817,-1.7829,-1.7828,-1.784,-1.783,-1.786,-1.7831,-1.7872,-1.7846,-1.7858,-1.7861,-1.7863,-1.7863,-1.783,-1.788,-1.7967,-1.7976,-1.7867,-1.7866,-1.7865,0,-1.7723,-1.7758,-1.7793,-1.7801,-1.7813,-1.783,-1.7835,-1.7846,-1.7859,-1.7875,-1.7883,-1.7903,-1.7913,-1.7929,-1.7924,-1.7904,-1.7967,-1.7937,-1.7967,-1.7967,-1.7979,-1.7978,-1.8068,-1.7989,-1.7989,-1.7989,-1.7989,0,-1.779,-1.7822,-1.7818,-1.7839,-1.7875,-1.7867,-1.7903,-1.7906,-1.7916,-1.7938,-1.7924,-1.7945,-1.7938,-1.7959,-1.7956,-1.7991,-1.7996,-1.7996,-1.7994,-1.7996,-1.7996,-1.8002,-1.7997,-1.7991,-1.7991,-1.799,-1.799,0,-1.7854,-1.7853,-1.789,-1.7899,-1.7902,-1.7928,-1.7935,-1.7956,-1.7957,-1.7985,-1.7991,-1.7992,-1.8016,-1.8013,-1.804,-1.8038,-1.8081,-1.8075,-1.8077,-1.8075,-1.8104,-1.8101,-1.82,-1.8212,-1.8127,-1.8128,-1.8128,0,-1.7896,-1.792,-1.7932,-1.7946,-1.7953,-1.7976,-1.7989,-1.7984,-1.7998,-1.8014,-1.8033,-1.8056,-1.8074,-1.8113,-1.8116,-1.8137,-1.8131,-1.8165,-1.8134,-1.8135,-1.813,-1.8128,-1.813,-1.817,-1.8171,-1.8172,-1.8172,0,-1.797,-1.7969,-1.7988,-1.8008,-1.8025,-1.804,-1.8054,-1.8066,-1.8062,-1.8079,-1.8104,-1.8118,-1.8146,-1.8169,-1.8189,-1.8195,-1.8183,-1.8182,-1.819,-1.8191,-1.8191,-1.819,-1.8092,-1.8179,-1.8179,-1.8178,-1.8178,-1.8178,-1.8024,-1.8045,-1.8056,-1.8079,-1.8089,-1.8103,-1.8123,-1.8126,-1.8147,-1.8169,-1.8165,-1.8193,-1.8205,-1.8231,-1.8239,-1.8261,-1.8249,-1.826,-1.8263,-1.8265,-1.8268,-1.8189,-1.8265,-1.8265,-1.8265,-1.8265,-1.8264,0,-1.8096,-1.8103,-1.8124,-1.8145,-1.8163,-1.8151,-1.8166,-1.8182,-1.8206,-1.8219,-1.8238,-1.8266,-1.8289,-1.8295,-1.8317,-1.8333,-1.8328,-1.8339,-1.8337,-1.8338,-1.8278,-1.8269,-1.8342,-1.8342,-1.8342,-1.8342,-1.8342,-1.8342,-1.8136,-1.817,-1.817,-1.821,-1.8217,-1.8244,-1.8254,-1.8267,-1.8277,-1.831,-1.8329,-1.8332,-1.8343,-1.8365,-1.8386,-1.8387,-1.8395,-1.8408,-1.8407,-1.835,-1.8342,-1.8335,-1.8326,-1.841,-1.841,-1.8464,-1.8465,-1.8465]},{"header":{"parameterUnit":"m.s-1","parameterCategory":1,"la1":30.2991,"la2":30.254,"lo1":-89.0895,"lo2":-89.0444,"dy":0.0017,"dx":0.0017,"nx":28,"ny":28,"refTime":"2025-02-04T03:00:00:Z","depth":0,"parameterNumber":3,"parameterNumberName":"V-component_of_WINDS"},"data":[0,0,0,0,0,0,0,0,0,0,0,0,0,0,0,0,0,0,0,0,0,0,0,0,0,0,0,0,0,0,0,0,0,0,0,0,0,0,0,0,0,0,0,0,0,0,0,0,0,0,0,0,0,0,0,0,0,0,1.5063,1.5064,0,1.5079,1.5079,1.5079,1.511,1.5111,1.5112,1.5112,1.5128,1.5127,1.5127,0,0,0,0,0,0,0,0,0,0,0,0,0,1.5061,1.5061,1.5063,1.5064,1.5064,1.5079,1.5079,1.5079,1.511,1.5111,1.5112,1.5113,1.5128,1.5127,1.5127,0,0,0,0,0,0,0,0,0,0,0,0,0,1.5068,1.5061,1.5063,1.5081,1.5083,1.5079,1.5079,1.508,1.511,1.5111,1.5112,1.5113,1.5128,1.5127,1.5127,1.5107,0,0,1.5126,1.5126,0,0,0,0,0,0,0,0,1.5067,1.5068,1.5078,1.508,1.5082,1.5094,1.5084,1.5089,1.511,1.51,1.5112,1.5113,1.5116,1.5116,1.5117,1.5108,1.5109,1.5126,1.5126,1.5126,1.5126,0,0,0,0,0,0,0,1.5067,1.5067,1.507,1.5078,1.5081,1.5088,1.509,1.5085,1.5102,1.5101,1.5103,1.5104,1.5117,1.5117,1.5118,1.5109,1.5126,1.5126,1.5126,1.5126,1.5085,1.5085,0,0,0,0,0,0,1.5064,1.5067,1.5069,1.507,1.5077,1.5088,1.509,1.5089,1.5102,1.5105,1.5104,1.5106,1.5117,1.5118,1.5118,1.5097,1.5126,1.5126,1.5126,1.5086,1.5085,1.5084,0,0,0,0,0,0,1.5063,1.5064,1.5069,1.5069,1.507,1.5087,1.5085,1.5089,1.509,1.5105,1.5108,1.5101,1.5118,1.5119,1.511,1.5098,1.5126,1.5126,1.5087,1.5086,1.5085,1.5054,0,0,0,0,0,0,1.5063,1.5063,1.5056,1.5069,1.507,1.506,1.5085,1.5088,1.5089,1.5092,1.5103,1.5106,1.5119,1.511,1.511,1.5098,1.5125,1.5089,1.5087,1.5085,1.5056,1.5051,1.5047,0,0,0,0,0,1.5063,1.5046,1.5055,1.5055,1.5061,1.5059,1.506,1.5075,1.5088,1.5081,1.5091,1.5106,1.5099,1.5109,1.5109,1.5097,1.5089,1.5087,1.5085,1.5058,1.5052,1.5048,0,0,0,0,0,0,1.5031,1.5048,1.5058,1.5045,1.505,1.5064,1.5056,1.5069,1.5071,1.5073,1.5092,1.5094,1.5084,1.5089,1.51,1.5079,1.5097,1.5095,1.5076,1.5071,1.5067,1.5066,1.5125,0,0,0,0,0,1.5022,1.5019,1.5034,1.5021,1.5023,1.5039,1.5038,1.505,1.5056,1.5059,1.5068,1.5073,1.5073,1.5072,1.5072,1.5057,1.506,1.5048,1.5044,1.5041,1.5039,1.5032,1.5028,1.5077,1.5077,1.5077,0,0,1.5004,1.5013,1.501,1.5015,1.502,1.5017,1.5041,1.5036,1.5034,1.5058,1.5051,1.5058,1.5065,1.5053,1.5048,1.5058,1.5026,1.5038,1.5035,1.5035,1.503,1.5025,1.5021,1.5076,1.5076,1.5076,0,0,1.497,1.4976,1.4967,1.4972,1.498,1.4991,1.4989,1.5001,1.5006,1.5,1.5018,1.5016,1.5014,1.5019,1.5021,1.499,1.5004,1.4989,1.4968,1.4961,1.4957,1.4954,1.4944,1.494,1.4987,1.4987,1.4987,0,1.4947,1.4943,1.496,1.4955,1.4956,1.4978,1.4969,1.4973,1.4981,1.4982,1.4992,1.4991,1.4998,1.4988,1.4981,1.4981,1.498,1.4989,1.4957,1.4953,1.4951,1.4941,1.4937,1.4985,1.4986,1.4986,1.4986,0,1.4915,1.4912,1.4903,1.4911,1.4911,1.4904,1.492,1.4919,1.493,1.494,1.4933,1.4941,1.4944,1.4943,1.4953,1.4935,1.494,1.4953,1.4972,1.4944,1.4935,1.4932,1.4983,1.4983,1.4984,1.4984,0,0,1.4861,1.4879,1.4875,1.488,1.4891,1.4889,1.4883,1.4886,1.4885,1.489,1.4886,1.4884,1.4896,1.4899,1.491,1.4904,1.4881,1.4918,1.4919,1.4912,1.4862,1.4853,1.4848,1.489,1.4889,1.4889,1.4862,0,1.4831,1.4822,1.4837,1.4824,1.4822,1.4843,1.4838,1.4844,1.4853,1.4853,1.4863,1.4862,1.4878,1.4879,1.4874,1.4885,1.4871,1.4887,1.4887,1.4887,1.4885,1.4844,1.4834,1.4808,1.4858,1.4858,1.4857,0,1.4794,1.4798,1.4785,1.4798,1.4798,1.4793,1.4798,1.4797,1.4805,1.4812,1.4815,1.4829,1.4824,1.4841,1.4835,1.4845,1.4846,1.4851,1.4851,1.4852,1.4871,1.4845,1.48,1.4797,1.4852,1.4853,1.4853,0,1.4758,1.4759,1.4753,1.4755,1.477,1.4766,1.4772,1.4781,1.4782,1.4786,1.4787,1.479,1.4792,1.4795,1.4809,1.482,1.4802,1.482,1.4808,1.4808,1.4804,1.4804,1.476,1.4802,1.4803,1.4803,1.4803,0,1.4723,1.4715,1.4737,1.4733,1.4724,1.4742,1.4733,1.4741,1.4749,1.4747,1.4764,1.4762,1.4781,1.4781,1.4792,1.4786,1.4786,1.4792,1.4796,1.4791,1.4791,1.4793,1.4796,1.4802,1.4802,1.4802,1.4802,0,1.4681,1.4696,1.469,1.4704,1.4708,1.4701,1.4714,1.4711,1.4721,1.4718,1.4718,1.4734,1.4735,1.475,1.4753,1.4761,1.4751,1.4757,1.4748,1.4751,1.4739,1.474,1.4695,1.469,1.4735,1.4734,1.4734,0,1.4659,1.4653,1.4667,1.4668,1.4673,1.4672,1.4674,1.4691,1.4692,1.4701,1.4697,1.47,1.4703,1.4703,1.4715,1.4718,1.4725,1.4709,1.4725,1.4722,1.4726,1.4727,1.4727,1.4705,1.4705,1.4704,1.4704,0,1.4618,1.4625,1.4627,1.4632,1.4633,1.4638,1.4643,1.4642,1.4661,1.4661,1.4663,1.4665,1.4669,1.4672,1.4677,1.4683,1.4697,1.4699,1.4696,1.4693,1.4688,1.4692,1.474,1.47,1.47,1.4701,1.4701,1.4701,1.4586,1.4582,1.4592,1.4594,1.46,1.4605,1.4603,1.4613,1.4615,1.462,1.463,1.463,1.4638,1.4647,1.4652,1.4653,1.4661,1.4657,1.4656,1.4655,1.4654,1.4687,1.4653,1.4653,1.4654,1.4654,1.4654,0,1.4547,1.4554,1.4556,1.4563,1.4565,1.4578,1.4585,1.4585,1.4585,1.4592,1.4595,1.4597,1.4599,1.4611,1.4615,1.4613,1.462,1.4614,1.4615,1.4616,1.4645,1.4648,1.4609,1.4609,1.4609,1.4609,1.4609,1.4609,1.4527,1.4522,1.4531,1.4529,1.4537,1.4537,1.454,1.4545,1.4551,1.4553,1.4555,1.4563,1.4572,1.4577,1.458,1.4584,1.4585,1.4577,1.4583,1.461,1.4614,1.4618,1.4621,1.4577,1.4577,1.4554,1.4554,1.4553]}]]